KD5YCY Weather Reports


time (UTC)temp
C
wind
direction
speed
KPH
gust
KPH
rain 1hr
cm
rain 24hr
cm
rain mn
cm
humidity
%
barometer
mb
20260506103657 11 337 12.9 25.7 0.00 0.00 0.00 86 941.9
20260506103557 11 9 11.3 24.1 0.00 0.00 0.00 86 941.9
20260506103456 11 344 11.3 24.1 0.00 0.00 0.00 86 941.9
20260506103351 11 13 11.3 22.5 0.00 0.00 0.00 86 941.9
20260506103251 11 11 11.3 22.5 0.00 0.00 0.00 87 941.9
20260506103151 11 351 11.3 22.5 0.00 0.00 0.00 87 941.9
20260506103049 11 5 11.3 22.5 0.00 0.00 0.00 87 942.0
20260506102950 11 309 11.3 20.9 0.00 0.00 0.00 87 942.0
20260506102845 11 19 11.3 25.7 0.00 0.00 0.00 87 942.0
20260506102745 11 329 11.3 25.7 0.00 0.00 0.00 87 942.0
20260506102658 11 34 11.3 25.7 0.00 0.00 0.00 87 942.0
20260506102642 11 18 11.3 25.7 0.00 0.00 0.00 87 942.0
20260506102444 11 9 12.9 25.7 0.00 0.00 0.00 87 942.0
20260506102339 11 10 12.9 25.7 0.00 0.00 0.00 87 941.9
20260506102237 11 36 14.5 25.7 0.00 0.00 0.00 87 941.8
20260506102139 11 344 14.5 25.7 0.00 0.00 0.00 87 941.8
20260506102041 11 318 14.5 25.7 0.00 0.00 0.00 87 941.7
20260506101938 11 343 14.5 25.7 0.00 0.00 0.00 87 941.7
20260506101918 11 341 12.9 22.5 0.00 0.00 0.00 87 941.8
20260506101732 11 344 12.9 22.5 0.00 0.00 0.00 87 941.7
20260506101653 11 0 12.9 22.5 0.00 0.00 0.00 87 941.7
20260506101532 11 346 12.9 22.5 0.00 0.00 0.00 87 941.8
20260506101433 11 11 12.9 22.5 0.00 0.00 0.00 87 941.8
20260506101326 10 348 12.9 22.5 0.00 0.00 0.00 87 941.8
20260506101227 10 341 11.3 20.9 0.00 0.00 0.00 88 941.8
20260506101127 10 348 11.3 20.9 0.00 0.00 0.00 88 941.8
20260506101026 10 335 11.3 20.9 0.00 0.00 0.00 88 941.8
20260506100926 10 355 9.7 20.9 0.00 0.00 0.00 87 941.8
20260506100821 10 9 9.7 20.9 0.00 0.00 0.00 87 941.8
20260506100720 10 344 8.0 20.9 0.00 0.00 0.00 87 941.8
20260506100621 10 350 8.0 17.7 0.00 0.00 0.00 87 941.9
20260506100521 10 340 8.0 17.7 0.00 0.00 0.00 87 941.9
20260506100420 10 351 8.0 16.1 0.00 0.00 0.00 87 941.9
20260506100316 10 17 9.7 16.1 0.00 0.00 0.00 87 941.9
20260506100216 10 344 9.7 16.1 0.00 0.00 0.00 87 941.8
20260506100115 10 27 9.7 16.1 0.00 0.00 0.00 87 941.8
20260506100017 10 351 9.7 16.1 0.00 0.00 0.00 87 941.8
20260506095914 10 348 9.7 16.1 0.00 0.00 0.00 87 941.8
20260506095811 10 347 9.7 16.1 0.00 0.00 0.00 87 941.7
20260506095708 10 14 9.7 16.1 0.00 0.00 0.00 87 941.7
20260506095609 10 0 9.7 16.1 0.00 0.00 0.00 87 941.6
20260506095509 10 319 9.7 16.1 0.00 0.00 0.00 87 941.6
20260506095408 10 342 9.7 16.1 0.00 0.00 0.00 87 941.6
20260506095305 10 0 8.0 14.5 0.00 0.00 0.00 87 941.6
20260506095204 10 11 9.7 14.5 0.00 0.00 0.00 87 941.5
20260506095103 10 351 9.7 16.1 0.00 0.00 0.00 87 941.5
20260506095004 10 24 9.7 16.1 0.00 0.00 0.00 87 941.5
20260506094901 10 343 9.7 16.1 0.00 0.00 0.00 87 941.5
20260506094755 11 9 9.7 16.1 0.00 0.00 0.00 87 941.5
20260506094701 11 345 9.7 16.1 0.00 0.00 0.00 87 941.5
20260506094643 11 319 9.7 16.1 0.00 0.00 0.00 87 941.4
20260506094453 11 341 9.7 16.1 0.00 0.00 0.00 87 941.4
20260506094355 11 342 9.7 16.1 0.00 0.00 0.00 87 941.4
20260506094249 11 329 9.7 16.1 0.00 0.00 0.00 87 941.4
20260506094149 11 345 9.7 17.7 0.00 0.00 0.00 87 941.3
20260506094048 11 11 9.7 17.7 0.00 0.00 0.00 87 941.3
20260506093949 11 351 9.7 17.7 0.00 0.00 0.00 87 941.2
20260506093848 11 341 9.7 17.7 0.00 0.00 0.00 87 941.2
20260506093743 11 334 9.7 17.7 0.00 0.00 0.00 87 941.2
20260506093642 11 343 9.7 17.7 0.00 0.00 0.00 87 941.1
20260506093543 11 333 9.7 17.7 0.00 0.00 0.00 87 941.1
20260506093443 11 343 9.7 17.7 0.00 0.00 0.00 86 941.1
20260506093342 11 355 11.3 17.7 0.00 0.00 0.00 86 941.1
20260506093236 11 338 9.7 17.7 0.00 0.00 0.00 87 941.0
20260506093137 11 346 11.3 17.7 0.00 0.00 0.00 87 941.0
20260506093037 11 347 11.3 17.7 0.00 0.00 0.00 87 941.0
20260506092936 11 0 11.3 17.7 0.00 0.00 0.00 87 940.9
20260506092837 11 329 11.3 19.3 0.00 0.00 0.00 86 940.9
20260506092731 11 351 11.3 19.3 0.00 0.00 0.00 86 940.9
20260506092630 11 348 11.3 19.3 0.00 0.00 0.00 86 940.9
20260506092530 11 0 11.3 19.3 0.00 0.00 0.00 86 940.9
20260506092431 11 349 11.3 19.3 0.00 0.00 0.00 86 940.9
20260506092330 11 0 11.3 19.3 0.00 0.00 0.00 86 940.9
20260506092224 11 344 11.3 19.3 0.00 0.00 0.00 86 940.9
20260506092125 11 347 11.3 19.3 0.00 0.00 0.00 86 940.9
20260506092025 11 23 11.3 19.3 0.00 0.00 0.00 86 940.9
20260506091924 11 348 9.7 19.3 0.00 0.00 0.00 86 940.9
20260506091824 11 11 9.7 16.1 0.00 0.00 0.00 86 941.0
20260506091719 11 15 8.0 16.1 0.00 0.00 0.00 86 941.0
20260506091618 11 348 8.0 16.1 0.00 0.00 0.00 86 941.0
20260506091518 11 12 9.7 16.1 0.00 0.00 0.00 86 941.1
20260506091419 11 337 9.7 16.1 0.00 0.00 0.00 86 941.2
20260506091318 11 347 9.7 16.1 0.00 0.00 0.00 86 941.2
20260506091213 11 355 9.7 16.1 0.00 0.00 0.00 86 941.2
20260506091118 11 24 9.7 16.1 0.00 0.00 0.00 86 941.2
20260506091100 11 350 9.7 16.1 0.00 0.00 0.00 86 941.2
20260506090912 11 347 9.7 16.1 0.00 0.00 0.00 86 941.2
20260506090812 11 329 9.7 16.1 0.00 0.00 0.00 86 941.1
20260506090706 11 5 9.7 17.7 0.00 0.00 0.00 86 941.1
20260506090607 11 323 9.7 17.7 0.00 0.00 0.00 85 941.1
20260506090507 11 338 9.7 17.7 0.00 0.00 0.00 85 941.1
20260506090406 11 336 9.7 17.7 0.00 0.00 0.00 85 941.1
20260506090306 11 344 9.7 17.7 0.00 0.00 0.00 85 941.1
20260506090201 11 331 9.7 17.7 0.00 0.00 0.00 85 941.0
20260506090000 11 323 11.3 19.3 0.00 0.00 0.00 85 941.0
20260506085900 11 347 11.3 19.3 0.00 0.00 0.00 85 941.0
20260506085800 11 349 11.3 19.3 0.00 0.00 0.00 85 941.0
20260506085654 11 331 11.3 19.3 0.00 0.00 0.00 85 941.0
20260506085555 11 0 9.7 19.3 0.00 0.00 0.00 85 941.0
20260506085455 11 319 9.7 19.3 0.00 0.00 0.00 85 941.0
20260506085355 11 336 9.7 19.3 0.00 0.00 0.00 85 941.0
20260506085254 11 333 9.7 19.3 0.00 0.00 0.00 85 941.0
20260506085149 11 347 8.0 19.3 0.00 0.00 0.00 85 941.0
20260506085048 11 329 8.0 17.7 0.00 0.00 0.00 85 941.0
20260506084948 11 334 8.0 17.7 0.00 0.00 0.00 85 941.0
20260506084848 11 355 8.0 16.1 0.00 0.00 0.00 85 941.1
20260506084749 11 351 8.0 16.1 0.00 0.00 0.00 85 941.0
20260506084643 11 336 8.0 16.1 0.00 0.00 0.00 85 941.0
20260506084541 11 355 8.0 16.1 0.00 0.00 0.00 85 941.0
20260506084443 11 355 8.0 16.1 0.00 0.00 0.00 85 941.0
20260506084342 11 340 9.7 16.1 0.00 0.00 0.00 85 941.0
20260506084242 11 11 9.7 19.3 0.00 0.00 0.00 85 941.0
20260506084137 11 325 9.7 19.3 0.00 0.00 0.00 85 941.0
20260506084038 11 10 9.7 19.3 0.00 0.00 0.00 85 941.0
20260506083937 11 329 9.7 19.3 0.00 0.00 0.00 85 941.1
20260506083838 11 339 9.7 19.3 0.00 0.00 0.00 85 941.2
20260506083736 11 338 9.7 19.3 0.00 0.00 0.00 85 941.2
20260506083631 11 350 11.3 19.3 0.00 0.00 0.00 85 941.2
20260506083530 11 339 11.3 19.3 0.00 0.00 0.00 85 941.1
20260506083431 11 9 11.3 19.3 0.00 0.00 0.00 85 941.1
20260506083331 11 346 9.7 17.7 0.00 0.00 0.00 85 941.1
20260506083230 11 348 9.7 17.7 0.00 0.00 0.00 85 941.0
20260506083124 11 298 9.7 17.7 0.00 0.00 0.00 85 941.0
20260506083024 11 348 9.7 17.7 0.00 0.00 0.00 85 941.0
20260506082924 11 331 9.7 17.7 0.00 0.00 0.00 85 941.0
20260506082824 11 350 11.3 19.3 0.00 0.00 0.00 85 941.0
20260506082724 11 355 11.3 24.1 0.00 0.00 0.00 85 940.9
20260506082619 11 334 11.3 24.1 0.00 0.00 0.00 85 940.9
20260506082517 11 349 11.3 24.1 0.00 0.00 0.00 85 940.9
20260506082418 11 342 12.9 24.1 0.00 0.00 0.00 85 940.9
20260506082318 11 324 12.9 24.1 0.00 0.00 0.00 85 940.9
20260506082218 11 11 12.9 24.1 0.00 0.00 0.00 85 941.0
20260506082113 11 9 12.9 24.1 0.00 0.00 0.00 85 941.0
20260506082011 11 350 12.9 24.1 0.00 0.00 0.00 85 941.0
20260506081913 11 0 12.9 24.1 0.00 0.00 0.00 85 941.0
20260506081813 11 330 12.9 24.1 0.00 0.00 0.00 85 940.9
20260506081712 11 346 12.9 24.1 0.00 0.00 0.00 85 940.9
20260506081607 11 18 12.9 24.1 0.00 0.00 0.00 85 940.9
20260506081514 11 0 11.3 24.1 0.00 0.00 0.00 84 940.9
20260506081456 11 342 11.3 24.1 0.00 0.00 0.00 84 941.0
20260506081308 12 355 9.7 20.9 0.00 0.00 0.00 84 941.0
20260506081207 12 350 9.7 17.7 0.00 0.00 0.00 84 941.0
20260506081101 12 340 9.7 17.7 0.00 0.00 0.00 84 941.0
20260506081000 12 349 9.7 17.7 0.00 0.00 0.00 84 940.9
20260506080900 12 344 9.7 17.7 0.00 0.00 0.00 84 940.9
20260506080800 12 5 8.0 17.7 0.00 0.00 0.00 84 940.9
20260506080700 12 351 8.0 17.7 0.00 0.00 0.00 84 940.8
20260506080554 12 341 8.0 17.7 0.00 0.00 0.00 84 940.9
20260506080453 12 334 9.7 17.7 0.00 0.00 0.00 84 940.9
20260506080355 12 25 9.7 17.7 0.00 0.00 0.00 84 940.8
20260506080253 12 343 9.7 17.7 0.00 0.00 0.00 84 940.9
20260506080154 12 344 9.7 17.7 0.00 0.00 0.00 84 940.9
20260506073518 12 351 8.0 14.5 0.00 0.00 0.00 83 941.2
20260506073417 12 326 8.0 16.1 0.00 0.00 0.00 83 941.2
20260506073318 12 355 8.0 16.1 0.00 0.00 0.00 82 941.2
20260506073217 12 340 8.0 16.1 0.00 0.00 0.00 82 941.2
20260506073118 12 0 8.0 16.1 0.00 0.00 0.00 82 941.2
20260506073011 12 348 8.0 16.1 0.00 0.00 0.00 82 941.3
20260506072918 12 355 8.0 16.1 0.00 0.00 0.00 82 941.2
20260506072902 12 17 8.0 16.1 0.00 0.00 0.00 82 941.1
20260506072713 12 342 8.0 16.1 0.00 0.00 0.00 82 941.0
20260506072612 12 0 8.0 16.1 0.00 0.00 0.00 82 941.0
20260506072506 12 0 8.0 19.3 0.00 0.00 0.00 82 941.0
20260506072406 12 30 9.7 20.9 0.00 0.00 0.00 82 941.1
20260506072306 12 32 9.7 20.9 0.00 0.00 0.00 82 941.1
20260506072206 12 21 9.7 20.9 0.00 0.00 0.00 82 941.0
20260506072106 12 11 9.7 20.9 0.00 0.00 0.00 82 941.0
20260506072002 12 22 9.7 20.9 0.00 0.00 0.00 82 941.0
20260506071902 12 24 9.7 20.9 0.00 0.00 0.00 82 941.1
20260506071801 12 40 9.7 20.9 0.00 0.00 0.00 82 941.1
20260506071702 12 49 11.3 20.9 0.00 0.00 0.00 82 941.1
20260506071600 12 10 9.7 20.9 0.00 0.00 0.00 81 941.1
20260506071454 12 348 9.7 20.9 0.00 0.00 0.00 82 941.2
20260506071354 12 348 9.7 17.7 0.00 0.00 0.00 82 941.2
20260506071255 12 350 9.7 17.7 0.00 0.00 0.00 82 941.2
20260506071153 12 9 9.7 17.7 0.00 0.00 0.00 81 941.1
20260506071054 12 351 8.0 17.7 0.00 0.00 0.00 81 941.1
20260506070948 13 13 8.0 16.1 0.00 0.00 0.00 81 941.2
20260506070849 12 327 8.0 16.1 0.00 0.00 0.00 81 941.1
20260506070750 13 345 8.0 16.1 0.00 0.00 0.00 81 941.0
20260506070648 13 9 8.0 16.1 0.00 0.00 0.00 81 941.0
20260506070548 13 21 8.0 16.1 0.00 0.00 0.00 81 940.9
20260506070444 13 331 8.0 16.1 0.00 0.00 0.00 81 940.9
20260506070405 13 16 8.0 16.1 0.00 0.00 0.00 81 940.9
20260506070243 13 42 8.0 16.1 0.00 0.00 0.00 81 940.9
20260506070144 13 17 9.7 16.1 0.00 0.00 0.00 81 940.9
20260506062500 13 15 9.7 19.3 0.00 0.00 0.00 79 941.0
20260506062354 13 55 11.3 19.3 0.00 0.00 0.00 78 940.9
20260506062253 13 0 11.3 19.3 0.00 0.00 0.00 78 940.8
20260506062153 13 19 11.3 20.9 0.00 0.00 0.00 78 940.8
20260506062055 14 34 11.3 20.9 0.00 0.00 0.00 78 940.8
20260506061954 13 23 11.3 20.9 0.00 0.00 0.00 78 940.8
20260506061848 14 21 11.3 20.9 0.00 0.00 0.00 78 940.7
20260506061750 14 340 11.3 20.9 0.00 0.00 0.00 78 940.7
20260506061648 14 333 11.3 20.9 0.00 0.00 0.00 78 940.6
20260506061548 14 20 9.7 20.9 0.00 0.00 0.00 77 940.6
20260506061448 14 334 9.7 20.9 0.00 0.00 0.00 77 940.6
20260506061344 14 329 9.7 20.9 0.00 0.00 0.00 77 940.6
20260506061248 14 345 9.7 20.9 0.00 0.00 0.00 77 940.6
20260506061146 14 341 9.7 19.3 0.00 0.00 0.00 77 940.7
20260506061044 14 23 9.7 19.3 0.00 0.00 0.00 77 940.7
20260506060946 14 9 9.7 19.3 0.00 0.00 0.00 77 940.7
20260506060843 14 18 9.7 19.3 0.00 0.00 0.00 77 940.8
20260506060642 14 355 9.7 19.3 0.00 0.00 0.00 77 940.9
20260506060626 14 38 9.7 19.3 0.00 0.00 0.00 77 940.9
20260506060443 14 36 9.7 19.3 0.00 0.00 0.00 77 940.8
20260506060403 14 15 9.7 19.3 0.00 0.00 0.00 77 940.8
20260506060347 14 30 9.7 19.3 0.00 0.00 0.00 76 940.7
20260506060143 14 350 9.7 19.3 0.00 0.00 0.00 76 940.7
20260506051349 16 60 6.4 12.9 0.00 0.00 0.00 71 939.8
20260506051251 16 11 6.4 17.7 0.00 0.00 0.00 71 939.8
20260506051149 16 5 8.0 17.7 0.00 0.00 0.00 71 939.8
20260506051045 16 17 8.0 17.7 0.00 0.00 0.00 71 939.8
20260506050947 16 22 8.0 17.7 0.00 0.00 0.00 71 939.8
20260506050847 16 43 8.0 17.7 0.00 0.00 0.00 70 939.7
20260506050745 16 0 9.7 17.7 0.00 0.00 0.00 70 939.7
20260506050643 16 19 9.7 17.7 0.00 0.00 0.00 70 939.7
20260506050537 16 27 9.7 17.7 0.00 0.00 0.00 70 939.7
20260506050435 16 60 9.7 17.7 0.00 0.00 0.00 70 939.6
20260506050337 16 9 9.7 17.7 0.00 0.00 0.00 69 939.6
20260506050237 16 34 9.7 17.7 0.00 0.00 0.00 69 939.7
20260506050136 16 36 9.7 17.7 0.00 0.00 0.00 69 939.7
20260506045124 17 17 9.7 19.3 0.00 0.00 0.00 68 939.8
20260506045020 17 20 9.7 19.3 0.00 0.00 0.00 68 939.8
20260506044920 17 15 9.7 19.3 0.00 0.00 0.00 68 939.8
20260506044819 17 44 8.0 19.3 0.00 0.00 0.00 68 939.8
20260506044719 17 14 8.0 19.3 0.00 0.00 0.00 68 939.8
20260506044620 17 38 8.0 19.3 0.00 0.00 0.00 68 939.8
20260506044519 17 52 8.0 16.1 0.00 0.00 0.00 68 939.8
20260506044420 17 30 8.0 14.5 0.00 0.00 0.00 68 939.7
20260506044320 17 339 8.0 14.5 0.00 0.00 0.00 69 939.8
20260506044221 17 31 8.0 14.5 0.00 0.00 0.00 69 939.7
20260506044120 17 44 8.0 14.5 0.00 0.00 0.00 69 939.8
20260506044019 17 72 8.0 14.5 0.00 0.00 0.00 69 939.8
20260506043921 17 78 8.0 14.5 0.00 0.00 0.00 68 939.8
20260506043819 17 49 8.0 14.5 0.00 0.00 0.00 69 939.8
20260506043720 17 59 8.0 14.5 0.00 0.00 0.00 68 939.7
20260506043619 17 74 8.0 14.5 0.00 0.00 0.00 68 939.8
20260506043519 17 78 8.0 16.1 0.00 0.00 0.00 68 939.8
20260506043419 18 36 8.0 16.1 0.00 0.00 0.00 68 939.7
20260506043318 18 69 8.0 16.1 0.00 0.00 0.00 67 939.7
20260506043217 18 60 8.0 16.1 0.00 0.00 0.00 67 939.7
20260506043118 18 92 8.0 16.1 0.00 0.00 0.00 68 939.6
20260506043018 18 37 8.0 17.7 0.00 0.00 0.00 67 939.6
20260506042918 18 35 8.0 17.7 0.00 0.00 0.00 67 939.5
20260506042819 18 17 9.7 17.7 0.00 0.00 0.00 67 939.4
20260506042718 18 14 9.7 19.3 0.00 0.00 0.00 67 939.5
20260506042618 18 20 9.7 20.9 0.00 0.00 0.00 67 939.4
20260506042518 18 9 9.7 22.5 0.00 0.00 0.00 66 939.4
20260506042419 18 67 9.7 22.5 0.00 0.00 0.00 66 939.4
20260506042342 18 35 9.7 22.5 0.00 0.00 0.00 66 939.4
20260506042218 18 56 9.7 22.5 0.00 0.00 0.00 66 939.5
20260506042118 18 48 9.7 22.5 0.00 0.00 0.00 66 939.6
20260506042019 18 32 9.7 22.5 0.00 0.00 0.00 66 939.7
20260506041913 18 40 9.7 22.5 0.00 0.00 0.00 65 939.8
20260506041814 18 40 9.7 22.5 0.00 0.00 0.00 66 939.8
20260506041713 18 351 8.0 22.5 0.00 0.00 0.00 65 939.8
20260506041613 18 26 8.0 22.5 0.00 0.00 0.00 66 939.8
20260506041514 18 52 8.0 20.9 0.00 0.00 0.00 66 939.8
20260506041414 18 38 8.0 16.1 0.00 0.00 0.00 66 939.7
20260506041341 18 350 8.0 14.5 0.00 0.00 0.00 65 939.7
20260506041214 18 48 8.0 14.5 0.00 0.00 0.00 66 939.7
20260506041114 18 20 8.0 14.5 0.00 0.00 0.00 65 939.7
20260506041014 18 29 8.0 14.5 0.00 0.00 0.00 65 939.6
20260506040914 18 15 8.0 14.5 0.00 0.00 0.00 65 939.6
20260506040813 18 38 8.0 14.5 0.00 0.00 0.00 65 939.6
20260506040714 18 5 8.0 14.5 0.00 0.00 0.00 65 939.6
20260506040615 18 340 8.0 14.5 0.00 0.00 0.00 65 939.6
20260506040513 18 0 8.0 14.5 0.00 0.00 0.00 64 939.6
20260506040413 18 346 8.0 14.5 0.00 0.00 0.00 64 939.6
20260506040346 18 327 8.0 14.5 0.00 0.00 0.00 64 939.5
20260506040215 18 340 8.0 14.5 0.00 0.00 0.00 64 939.5
20260506040115 19 342 8.0 14.5 0.00 0.00 0.00 64 939.6
20260506040010 19 5 8.0 14.5 0.00 0.00 0.00 64 939.5
20260506035909 19 9 6.4 14.5 0.00 0.00 0.00 63 939.6
20260506035811 19 0 6.4 12.9 0.00 0.00 0.00 63 939.5
20260506035710 19 11 6.4 12.9 0.00 0.00 0.00 63 939.5
20260506035609 19 347 6.4 12.9 0.00 0.00 0.00 63 939.6
20260506035510 19 9 6.4 12.9 0.00 0.00 0.00 63 939.6
20260506035410 19 9 6.4 14.5 0.00 0.00 0.00 63 939.6
20260506035309 19 349 6.4 14.5 0.00 0.00 0.00 63 939.6
20260506035209 19 355 6.4 14.5 0.00 0.00 0.00 63 939.6
20260506035110 19 9 6.4 16.1 0.00 0.00 0.00 63 939.5
20260506035009 19 355 6.4 16.1 0.00 0.00 0.00 63 939.5
20260506034909 19 0 8.0 16.1 0.00 0.00 0.00 63 939.4
20260506034810 19 57 8.0 16.1 0.00 0.00 0.00 63 939.4
20260506034709 19 26 8.0 16.1 0.00 0.00 0.00 63 939.4
20260506034609 19 22 8.0 16.1 0.00 0.00 0.00 63 939.4
20260506034509 19 38 8.0 16.1 0.00 0.00 0.00 63 939.4
20260506034409 19 30 8.0 16.1 0.00 0.00 0.00 63 939.4
20260506034309 19 17 8.0 16.1 0.00 0.00 0.00 62 939.4
20260506034210 19 11 8.0 16.1 0.00 0.00 0.00 62 939.4
20260506034106 19 355 8.0 14.5 0.00 0.00 0.00 63 939.3
20260506034005 19 23 8.0 14.5 0.00 0.00 0.00 63 939.4
20260506033905 20 355 8.0 14.5 0.00 0.00 0.00 63 939.4
20260506033839 20 13 6.4 14.5 0.00 0.00 0.00 62 939.4
20260506033705 20 10 6.4 14.5 0.00 0.00 0.00 63 939.4
20260506033605 20 350 6.4 14.5 0.00 0.00 0.00 63 939.4
20260506033507 20 15 6.4 14.5 0.00 0.00 0.00 62 939.4
20260506033405 20 355 6.4 14.5 0.00 0.00 0.00 62 939.4
20260506033305 20 31 6.4 14.5 0.00 0.00 0.00 62 939.5
20260506033205 20 38 6.4 14.5 0.00 0.00 0.00 62 939.5
20260506033106 20 22 6.4 14.5 0.00 0.00 0.00 61 939.5
20260506033005 20 10 6.4 14.5 0.00 0.00 0.00 62 939.5
20260506032906 20 40 6.4 14.5 0.00 0.00 0.00 62 939.4
20260506032840 20 13 6.4 14.5 0.00 0.00 0.00 62 939.4
20260506032706 20 26 6.4 14.5 0.00 0.00 0.00 62 939.4
20260506032606 20 24 6.4 14.5 0.00 0.00 0.00 62 939.4
20260506032505 20 25 6.4 14.5 0.00 0.00 0.00 62 939.4
20260506032405 20 343 6.4 14.5 0.00 0.00 0.00 62 939.3
20260506032306 20 340 6.4 12.9 0.00 0.00 0.00 62 939.3
20260506032201 20 26 6.4 14.5 0.00 0.00 0.00 62 939.3
20260506032101 20 26 6.4 14.5 0.00 0.00 0.00 62 939.4
20260506032002 20 22 6.4 14.5 0.00 0.00 0.00 62 939.4
20260506031902 20 355 6.4 14.5 0.00 0.00 0.00 62 939.4
20260506031802 20 54 6.4 14.5 0.00 0.00 0.00 62 939.4
20260506031702 20 40 8.0 14.5 0.00 0.00 0.00 62 939.4
20260506031601 20 18 8.0 14.5 0.00 0.00 0.00 62 939.4
20260506031502 20 349 8.0 14.5 0.00 0.00 0.00 62 939.4
20260506031359 20 19 8.0 14.5 0.00 0.00 0.00 62 939.4
20260506031259 20 29 8.0 14.5 0.00 0.00 0.00 62 939.4
20260506031201 20 0 8.0 14.5 0.00 0.00 0.00 62 939.4
20260506031059 20 13 8.0 14.5 0.00 0.00 0.00 62 939.4
20260506030955 20 355 8.0 14.5 0.00 0.00 0.00 61 939.4
20260506030854 20 11 8.0 14.5 0.00 0.00 0.00 61 939.3
20260506030754 20 5 8.0 14.5 0.00 0.00 0.00 62 939.4
20260506030653 20 5 8.0 14.5 0.00 0.00 0.00 62 939.3
20260506030554 20 9 8.0 14.5 0.00 0.00 0.00 62 939.3
20260506030448 20 346 8.0 14.5 0.00 0.00 0.00 62 939.2
20260506030348 20 355 8.0 14.5 0.00 0.00 0.00 61 939.2
20260506030247 20 22 8.0 14.5 0.00 0.00 0.00 62 939.1
20260506030148 20 15 8.0 14.5 0.00 0.00 0.00 62 939.1
20260506030048 20 5 8.0 14.5 0.00 0.00 0.00 62 939.1
20260506025943 20 0 8.0 14.5 0.00 0.00 0.00 62 939.0
20260506025843 20 18 8.0 14.5 0.00 0.00 0.00 62 939.0
20260506025742 20 9 8.0 14.5 0.00 0.00 0.00 62 938.9
20260506025643 20 44 8.0 14.5 0.00 0.00 0.00 62 938.9
20260506025542 20 24 8.0 14.5 0.00 0.00 0.00 62 938.9
20260506025437 20 10 8.0 14.5 0.00 0.00 0.00 63 938.9
20260506025336 20 355 8.0 14.5 0.00 0.00 0.00 63 938.9
20260506025237 20 35 8.0 14.5 0.00 0.00 0.00 64 938.9
20260506025137 20 25 6.4 14.5 0.00 0.00 0.00 63 938.9
20260506025036 20 15 6.4 14.5 0.00 0.00 0.00 63 938.9
20260506024933 20 9 6.4 14.5 0.00 0.00 0.00 64 938.9
20260506024831 20 36 6.4 14.5 0.00 0.00 0.00 64 938.8
20260506024731 20 15 6.4 14.5 0.00 0.00 0.00 64 938.8
20260506024630 20 22 6.4 12.9 0.00 0.00 0.00 64 938.9
20260506024530 20 9 4.8 12.9 0.00 0.00 0.00 64 938.9
20260506024425 20 9 4.8 12.9 0.00 0.00 0.00 64 938.8
20260506024336 20 355 4.8 12.9 0.00 0.00 0.00 64 938.8
20260506024319 20 351 4.8 12.9 0.00 0.00 0.00 64 938.8
20260506024124 20 342 4.8 12.9 0.00 0.00 0.00 65 938.8
20260506024024 20 27 4.8 12.9 0.00 0.00 0.00 65 938.8
20260506023920 20 9 4.8 8.0 0.00 0.00 0.00 64 938.7
20260506023820 20 23 4.8 8.0 0.00 0.00 0.00 64 938.7
20260506023621 20 10 4.8 8.0 0.00 0.00 0.00 64 938.7
20260506023518 20 336 4.8 8.0 0.00 0.00 0.00 64 938.7
20260506023415 20 346 4.8 8.0 0.00 0.00 0.00 64 938.7
20260506023312 20 336 4.8 8.0 0.00 0.00 0.00 64 938.7
20260506023213 20 348 4.8 8.0 0.00 0.00 0.00 64 938.7
20260506023113 20 342 4.8 8.0 0.00 0.00 0.00 64 938.7
20260506023012 20 335 4.8 8.0 0.00 0.00 0.00 64 938.7
20260506022909 20 340 3.2 8.0 0.00 0.00 0.00 64 938.7
20260506022827 20 327 3.2 8.0 0.00 0.00 0.00 64 938.6
20260506022811 21 350 3.2 8.0 0.00 0.00 0.00 64 938.6
20260506022607 21 348 3.2 8.0 0.00 0.00 0.00 64 938.6
20260506022506 21 336 3.2 6.4 0.00 0.00 0.00 64 938.6
20260506022404 21 330 3.2 6.4 0.00 0.00 0.00 65 938.6
20260506022326 21 319 1.6 6.4 0.00 0.00 0.00 65 938.6
20260506022308 21 336 3.2 4.8 0.00 0.00 0.00 65 938.5
20260506022103 21 5 3.2 6.4 0.00 0.00 0.00 64 938.5
20260506022000 21 5 3.2 8.0 0.00 0.00 0.00 65 938.5
20260506021857 21 5 3.2 8.0 0.00 0.00 0.00 65 938.5
20260506021755 21 5 3.2 8.0 0.00 0.00 0.00 64 938.5
20260506021655 21 5 4.8 8.0 0.00 0.00 0.00 62 938.5
20260506021554 21 9 4.8 8.0 0.00 0.00 0.00 62 938.5
20260506021454 21 14 4.8 8.0 0.00 0.00 0.00 63 938.5
20260506021348 21 13 3.2 8.0 0.00 0.00 0.00 62 938.5
20260506021248 21 24 3.2 8.0 0.00 0.00 0.00 62 938.5
20260506021149 21 5 3.2 8.0 0.00 0.00 0.00 62 938.4
20260506021049 21 13 3.2 8.0 0.00 0.00 0.00 61 938.4
20260506020948 21 10 3.2 6.4 0.00 0.00 0.00 62 938.4
20260506020841 21 11 3.2 6.4 0.00 0.00 0.00 61 938.4
20260506020742 21 5 3.2 6.4 0.00 0.00 0.00 62 938.4
20260506020643 21 5 3.2 6.4 0.00 0.00 0.00 61 938.3
20260506020541 21 9 3.2 6.4 0.00 0.00 0.00 61 938.3
20260506020442 21 11 3.2 6.4 0.00 0.00 0.00 61 938.3
20260506020338 21 355 3.2 6.4 0.00 0.00 0.00 61 938.2
20260506020237 21 0 3.2 6.4 0.00 0.00 0.00 61 938.2
20260506020138 21 0 3.2 6.4 0.00 0.00 0.00 62 938.2
20260506020039 21 51 3.2 6.4 0.00 0.00 0.00 62 938.1
20260506015936 22 22 3.2 6.4 0.00 0.00 0.00 62 938.1
20260506015831 22 53 3.2 6.4 0.00 0.00 0.00 62 938.0
20260506015731 22 48 3.2 6.4 0.00 0.00 0.00 62 938.0
20260506015631 22 32 4.8 8.0 0.00 0.00 0.00 60 938.0
20260506015529 22 5 4.8 8.0 0.00 0.00 0.00 60 938.0
20260506015430 22 5 4.8 8.0 0.00 0.00 0.00 60 938.1
20260506015326 22 5 4.8 8.0 0.00 0.00 0.00 60 938.1
20260506015225 22 350 4.8 8.0 0.00 0.00 0.00 60 938.1
20260506015125 22 10 4.8 8.0 0.00 0.00 0.00 60 938.1
20260506015024 22 5 4.8 8.0 0.00 0.00 0.00 60 938.1
20260506014925 22 336 4.8 8.0 0.00 0.00 0.00 60 938.1
20260506014819 22 337 4.8 8.0 0.00 0.00 0.00 60 938.1
20260506014718 22 29 4.8 8.0 0.00 0.00 0.00 61 938.0
20260506014618 22 355 4.8 11.3 0.00 0.00 0.00 60 938.0
20260506014517 22 0 4.8 11.3 0.00 0.00 0.00 60 938.0
20260506014415 22 30 4.8 11.3 0.00 0.00 0.00 60 938.0
20260506014319 22 5 4.8 11.3 0.00 0.00 0.00 61 938.0
20260506014302 22 19 4.8 11.3 0.00 0.00 0.00 59 938.0
20260506014108 22 12 4.8 11.3 0.00 0.00 0.00 60 938.0
20260506014008 22 9 4.8 11.3 0.00 0.00 0.00 61 938.0
20260506013908 22 19 4.8 11.3 0.00 0.00 0.00 60 937.9
20260506013806 22 28 4.8 11.3 0.00 0.00 0.00 59 937.9
20260506013706 23 346 4.8 11.3 0.00 0.00 0.00 58 937.8
20260506013604 23 26 4.8 11.3 0.00 0.00 0.00 58 937.8
20260506013504 23 13 4.8 8.0 0.00 0.00 0.00 58 937.8
20260506013404 23 347 4.8 8.0 0.00 0.00 0.00 58 937.8
20260506013303 23 355 4.8 8.0 0.00 0.00 0.00 58 937.8
20260506013205 23 17 4.8 8.0 0.00 0.00 0.00 58 937.7
20260506013102 23 340 4.8 11.3 0.00 0.00 0.00 57 937.7
20260506013002 23 22 4.8 11.3 0.00 0.00 0.00 57 937.7
20260506012903 23 15 4.8 11.3 0.00 0.00 0.00 57 937.7
20260506012801 23 345 4.8 11.3 0.00 0.00 0.00 57 937.7
20260506012703 23 43 4.8 11.3 0.00 0.00 0.00 57 937.6
20260506012603 23 21 6.4 11.3 0.00 0.00 0.00 57 937.6
20260506012459 23 24 6.4 11.3 0.00 0.00 0.00 56 937.6
20260506012400 23 9 6.4 11.3 0.00 0.00 0.00 56 937.6
20260506012259 23 15 6.4 11.3 0.00 0.00 0.00 57 937.6
20260506012156 23 5 6.4 11.3 0.00 0.00 0.00 56 937.6
20260506012055 23 0 6.4 12.9 0.00 0.00 0.00 56 937.5
20260506011956 24 345 6.4 12.9 0.00 0.00 0.00 56 937.5
20260506011857 24 16 6.4 12.9 0.00 0.00 0.00 56 937.5
20260506011756 24 5 6.4 12.9 0.00 0.00 0.00 56 937.4
20260506011554 24 0 6.4 12.9 0.00 0.00 0.00 56 937.4
20260506011535 24 13 6.4 12.9 0.00 0.00 0.00 56 937.4
20260506011354 24 5 6.4 12.9 0.00 0.00 0.00 56 937.3
20260506011313 24 28 6.4 12.9 0.00 0.00 0.00 55 937.4
20260506011256 24 344 6.4 12.9 0.00 0.00 0.00 55 937.3
20260506011046 24 355 6.4 12.9 0.00 0.00 0.00 55 937.4
20260506010946 24 20 6.4 12.9 0.00 0.00 0.00 55 937.4
20260506010845 25 22 6.4 12.9 0.00 0.00 0.00 55 937.3
20260506010746 25 5 6.4 12.9 0.00 0.00 0.00 56 937.3
20260506010541 25 29 6.4 12.9 0.00 0.00 0.00 55 937.2
20260506010439 25 61 6.4 12.9 0.00 0.00 0.00 55 937.2
20260506010341 25 15 6.4 12.9 0.00 0.00 0.00 55 937.1
20260506010240 25 11 6.4 12.9 0.00 0.00 0.00 55 937.1
20260506010034 25 41 6.4 14.5 0.00 0.00 0.00 55 937.2
20260506005934 25 333 6.4 14.5 0.00 0.00 0.00 55 937.1
20260506005834 25 26 6.4 14.5 0.00 0.00 0.00 55 937.1
20260506005734 25 30 6.4 14.5 0.00 0.00 0.00 55 937.1
20260506005527 25 5 6.4 16.1 0.00 0.00 0.00 56 937.1
20260506005428 25 32 6.4 16.1 0.00 0.00 0.00 55 937.0
20260506005329 25 53 6.4 16.1 0.00 0.00 0.00 55 937.0
20260506005249 25 46 8.0 16.1 0.00 0.00 0.00 55 937.0
20260506005232 25 57 8.0 16.1 0.00 0.00 0.00 56 936.9
20260506005023 25 17 8.0 16.1 0.00 0.00 0.00 55 936.8
20260506004922 25 71 8.0 16.1 0.00 0.00 0.00 54 936.8
20260506004822 25 50 6.4 16.1 0.00 0.00 0.00 54 936.7
20260506004744 25 38 6.4 16.1 0.00 0.00 0.00 54 936.8
20260506004727 25 46 6.4 16.1 0.00 0.00 0.00 53 936.7
20260506004518 25 5 4.8 16.1 0.00 0.00 0.00 54 936.8
20260506004415 26 31 6.4 16.1 0.00 0.00 0.00 52 936.9
20260506004315 26 32 4.8 16.1 0.00 0.00 0.00 52 936.9
20260506004238 26 33 4.8 12.9 0.00 0.00 0.00 52 936.9
20260506004220 26 22 4.8 12.9 0.00 0.00 0.00 51 936.9
20260506004010 26 355 4.8 12.9 0.00 0.00 0.00 50 936.9
20260506003911 26 19 4.8 12.9 0.00 0.00 0.00 49 936.8
20260506003811 26 27 4.8 12.9 0.00 0.00 0.00 48 936.8
20260506003731 26 348 4.8 12.9 0.00 0.00 0.00 48 936.9
20260506003714 26 34 4.8 12.9 0.00 0.00 0.00 47 936.9
20260506003503 26 337 4.8 12.9 0.00 0.00 0.00 47 936.8
20260506003404 26 10 4.8 12.9 0.00 0.00 0.00 46 936.8
20260506003304 26 15 4.8 12.9 0.00 0.00 0.00 46 936.7
20260506003203 26 11 4.8 8.0 0.00 0.00 0.00 45 936.7
20260506002958 26 13 4.8 8.0 0.00 0.00 0.00 44 936.6
20260506002858 26 342 4.8 8.0 0.00 0.00 0.00 45 936.6
20260506002758 26 329 4.8 8.0 0.00 0.00 0.00 44 936.6
20260506002719 26 306 4.8 8.0 0.00 0.00 0.00 45 936.6
20260506002702 26 335 4.8 8.0 0.00 0.00 0.00 45 936.6
20260506002452 26 323 4.8 8.0 0.00 0.00 0.00 45 936.5
20260506002353 26 329 6.4 9.7 0.00 0.00 0.00 45 936.5
20260506002253 26 330 6.4 9.7 0.00 0.00 0.00 45 936.5
20260506002152 26 348 6.4 9.7 0.00 0.00 0.00 44 936.5
20260506001947 26 331 6.4 9.7 0.00 0.00 0.00 45 936.4
20260506001846 26 19 6.4 9.7 0.00 0.00 0.00 44 936.4
20260506001747 26 15 6.4 9.7 0.00 0.00 0.00 44 936.4
20260506001646 26 330 6.4 9.7 0.00 0.00 0.00 44 936.4
20260506001441 26 327 6.4 9.7 0.00 0.00 0.00 44 936.5
20260506001342 26 327 6.4 9.7 0.00 0.00 0.00 45 936.4
20260506001242 26 348 6.4 9.7 0.00 0.00 0.00 45 936.4
20260506001142 26 348 6.4 9.7 0.00 0.00 0.00 44 936.3
20260506000937 26 319 6.4 11.3 0.00 0.00 0.00 44 936.3
20260506000835 26 311 6.4 11.3 0.00 0.00 0.00 44 936.3
20260506000735 26 314 6.4 11.3 0.00 0.00 0.00 43 936.3
20260506000656 26 331 4.8 11.3 0.00 0.00 0.00 43 936.3
20260506000639 26 309 6.4 11.3 0.00 0.00 0.00 43 936.3
20260506000431 27 315 6.4 11.3 0.00 0.00 0.00 44 936.3
20260506000330 27 331 6.4 11.3 0.00 0.00 0.00 43 936.2
20260506000228 27 346 6.4 11.3 0.00 0.00 0.00 43 936.0
20260506000129 27 325 6.4 11.3 0.00 0.00 0.00 42 936.0
20260505235923 27 17 6.4 9.7 0.00 0.00 0.00 44 936.0
20260505235822 27 11 6.4 9.7 0.00 0.00 0.00 42 936.1
20260505235723 27 19 6.4 9.7 0.00 0.00 0.00 42 936.2
20260505235621 27 355 6.4 9.7 0.00 0.00 0.00 42 936.3
20260505235417 27 340 6.4 9.7 0.00 0.00 0.00 42 936.2
20260505235317 27 331 6.4 9.7 0.00 0.00 0.00 42 936.2
20260505235216 27 345 6.4 9.7 0.00 0.00 0.00 41 936.2
20260505235116 27 336 6.4 11.3 0.00 0.00 0.00 42 936.2
20260505234911 27 5 6.4 11.3 0.00 0.00 0.00 42 936.2
20260505234810 27 337 6.4 11.3 0.00 0.00 0.00 42 936.1
20260505234711 27 310 6.4 11.3 0.00 0.00 0.00 41 936.1
20260505234611 27 19 6.4 12.9 0.00 0.00 0.00 41 936.0
20260505234405 28 344 8.0 12.9 0.00 0.00 0.00 41 935.9
20260505234303 28 349 8.0 17.7 0.00 0.00 0.00 40 935.9
20260505234205 28 355 8.0 17.7 0.00 0.00 0.00 40 935.9
20260505234103 28 338 9.7 17.7 0.00 0.00 0.00 40 935.8
20260505233859 28 10 9.7 17.7 0.00 0.00 0.00 39 935.8
20260505233759 28 23 9.7 17.7 0.00 0.00 0.00 40 935.8
20260505233700 28 20 9.7 17.7 0.00 0.00 0.00 39 935.9
20260505233600 28 9 11.3 17.7 0.00 0.00 0.00 39 935.9
20260505233355 28 5 11.3 22.5 0.00 0.00 0.00 39 936.0
20260505233252 28 351 11.3 22.5 0.00 0.00 0.00 39 935.9
20260505233152 28 15 11.3 22.5 0.00 0.00 0.00 39 935.8
20260505233052 28 48 11.3 22.5 0.00 0.00 0.00 39 935.8
20260505232846 28 296 11.3 22.5 0.00 0.00 0.00 37 936.0
20260505232746 28 337 11.3 22.5 0.00 0.00 0.00 38 936.0
20260505232646 29 325 12.9 22.5 0.00 0.00 0.00 37 936.0
20260505232545 29 355 11.3 22.5 0.00 0.00 0.00 37 935.9
20260505232341 29 0 9.7 19.3 0.00 0.00 0.00 38 935.9
20260505232239 29 306 9.7 19.3 0.00 0.00 0.00 37 936.0
20260505232140 29 16 9.7 19.3 0.00 0.00 0.00 38 936.0
20260505232041 29 314 8.0 19.3 0.00 0.00 0.00 37 936.1
20260505231833 29 320 6.4 19.3 0.00 0.00 0.00 37 935.9
20260505231735 29 315 6.4 19.3 0.00 0.00 0.00 37 935.9
20260505231635 29 0 6.4 17.7 0.00 0.00 0.00 39 935.8
20260505231533 30 319 6.4 17.7 0.00 0.00 0.00 36 935.7
20260505231327 30 313 6.4 17.7 0.00 0.00 0.00 36 935.7
20260505231227 30 342 6.4 17.7 0.00 0.00 0.00 36 935.7
20260505231128 30 344 8.0 17.7 0.00 0.00 0.00 36 935.6
20260505231029 30 5 8.0 17.7 0.00 0.00 0.00 35 935.7
20260505230822 30 327 8.0 17.7 0.00 0.00 0.00 33 935.6
20260505230721 30 308 8.0 17.7 0.00 0.00 0.00 36 935.6
20260505230622 30 336 6.4 17.7 0.00 0.00 0.00 36 935.6
20260505230521 30 37 6.4 14.5 0.00 0.00 0.00 35 935.6
20260505230318 30 327 6.4 14.5 0.00 0.00 0.00 36 935.7
20260505230218 30 355 6.4 14.5 0.00 0.00 0.00 35 935.7
20260505230117 30 331 6.4 12.9 0.00 0.00 0.00 35 935.8
20260505230019 30 355 6.4 12.9 0.00 0.00 0.00 36 935.7
20260505225812 30 327 6.4 14.5 0.00 0.00 0.00 35 935.8
20260505225710 30 338 6.4 14.5 0.00 0.00 0.00 33 935.8
20260505225610 30 17 6.4 14.5 0.00 0.00 0.00 33 935.8
20260505225509 30 331 6.4 14.5 0.00 0.00 0.00 34 935.7
20260505225305 30 329 6.4 14.5 0.00 0.00 0.00 33 935.9
20260505225203 31 298 8.0 14.5 0.00 0.00 0.00 35 935.9
20260505225105 31 329 8.0 14.5 0.00 0.00 0.00 32 935.9
20260505225004 31 325 8.0 14.5 0.00 0.00 0.00 33 936.0
20260505224758 31 317 8.0 14.5 0.00 0.00 0.00 34 936.0
20260505224658 31 305 8.0 14.5 0.00 0.00 0.00 33 935.9
20260505224558 31 288 8.0 19.3 0.00 0.00 0.00 33 935.9
20260505224458 31 259 8.0 19.3 0.00 0.00 0.00 34 935.9
20260505224252 31 241 8.0 19.3 0.00 0.00 0.00 34 935.8
20260505224151 31 253 8.0 19.3 0.00 0.00 0.00 35 935.8
20260505224052 31 219 6.4 19.3 0.00 0.00 0.00 34 935.8
20260505223951 31 261 6.4 19.3 0.00 0.00 0.00 34 935.7
20260505223748 31 229 6.4 19.3 0.00 0.00 0.00 32 935.7
20260505223648 31 259 6.4 19.3 0.00 0.00 0.00 32 935.6
20260505223548 31 252 6.4 14.5 0.00 0.00 0.00 33 935.7
20260505223448 31 227 6.4 14.5 0.00 0.00 0.00 33 935.6
20260505223245 31 242 6.4 14.5 0.00 0.00 0.00 32 935.6
20260505223144 31 235 6.4 14.5 0.00 0.00 0.00 31 935.6
20260505223041 31 234 6.4 14.5 0.00 0.00 0.00 32 935.6
20260505222943 31 235 6.4 14.5 0.00 0.00 0.00 31 935.6
20260505222736 31 223 6.4 14.5 0.00 0.00 0.00 33 935.6
20260505222636 31 229 6.4 12.9 0.00 0.00 0.00 31 935.6
20260505222535 31 220 6.4 14.5 0.00 0.00 0.00 31 935.5
20260505222437 31 246 8.0 16.1 0.00 0.00 0.00 33 935.5
20260505222229 31 192 6.4 16.1 0.00 0.00 0.00 32 935.5
20260505222128 31 222 6.4 16.1 0.00 0.00 0.00 30 935.5
20260505222028 31 237 6.4 16.1 0.00 0.00 0.00 30 935.5
20260505221928 31 250 6.4 16.1 0.00 0.00 0.00 30 935.5
20260505221723 31 215 6.4 16.1 0.00 0.00 0.00 31 935.5
20260505221622 31 215 6.4 16.1 0.00 0.00 0.00 31 935.4
20260505221522 31 232 4.8 16.1 0.00 0.00 0.00 31 935.5
20260505221421 31 199 6.4 14.5 0.00 0.00 0.00 33 935.4
20260505221216 31 206 6.4 17.7 0.00 0.00 0.00 33 935.4
20260505221115 31 225 6.4 17.7 0.00 0.00 0.00 34 935.4
20260505221017 31 209 6.4 17.7 0.00 0.00 0.00 32 935.3
20260505220915 31 225 8.0 17.7 0.00 0.00 0.00 32 935.3
20260505220709 31 259 8.0 17.7 0.00 0.00 0.00 31 935.2
20260505220609 31 263 8.0 17.7 0.00 0.00 0.00 35 935.2
20260505220510 31 233 8.0 17.7 0.00 0.00 0.00 32 935.2
20260505220430 31 202 8.0 17.7 0.00 0.00 0.00 34 935.2
20260505220415 31 234 8.0 16.1 0.00 0.00 0.00 35 935.2
20260505220205 31 235 8.0 16.1 0.00 0.00 0.00 32 935.2
20260505220105 31 229 8.0 17.7 0.00 0.00 0.00 33 935.2
20260505220005 31 205 8.0 17.7 0.00 0.00 0.00 34 935.2
20260505215907 31 233 8.0 17.7 0.00 0.00 0.00 35 935.3
20260505215700 31 193 9.7 17.7 0.00 0.00 0.00 34 935.4
20260505215557 31 199 9.7 17.7 0.00 0.00 0.00 34 935.4
20260505215458 31 195 9.7 20.9 0.00 0.00 0.00 34 935.4
20260505215357 31 244 9.7 20.9 0.00 0.00 0.00 36 935.4
20260505215152 31 193 9.7 20.9 0.00 0.00 0.00 34 935.5
20260505215052 31 212 9.7 20.9 0.00 0.00 0.00 35 935.5
20260505214952 31 220 9.7 20.9 0.00 0.00 0.00 35 935.5
20260505214852 31 200 9.7 20.9 0.00 0.00 0.00 35 935.5
20260505214648 31 191 11.3 20.9 0.00 0.00 0.00 33 935.5
20260505214546 31 192 11.3 20.9 0.00 0.00 0.00 32 935.5
20260505214447 31 196 11.3 19.3 0.00 0.00 0.00 33 935.5
20260505214345 31 211 11.3 19.3 0.00 0.00 0.00 33 935.5
20260505214141 31 206 11.3 19.3 0.00 0.00 0.00 33 935.5
20260505214039 31 205 11.3 19.3 0.00 0.00 0.00 32 935.5
20260505213940 31 226 11.3 19.3 0.00 0.00 0.00 34 935.5
20260505213839 32 219 11.3 19.3 0.00 0.00 0.00 32 935.5
20260505213634 32 209 9.7 17.7 0.00 0.00 0.00 33 935.5
20260505213533 32 212 9.7 17.7 0.00 0.00 0.00 32 935.5
20260505213435 32 188 9.7 17.7 0.00 0.00 0.00 35 935.5
20260505213334 32 191 9.7 16.1 0.00 0.00 0.00 33 935.5
20260505213127 32 224 9.7 17.7 0.00 0.00 0.00 32 935.7
20260505213028 32 196 8.0 17.7 0.00 0.00 0.00 32 935.6
20260505212928 32 209 8.0 17.7 0.00 0.00 0.00 32 935.6
20260505212827 32 198 8.0 17.7 0.00 0.00 0.00 32 935.7
20260505212623 32 233 8.0 17.7 0.00 0.00 0.00 34 935.7
20260505212524 32 213 8.0 20.9 0.00 0.00 0.00 34 935.7
20260505212423 32 219 8.0 20.9 0.00 0.00 0.00 33 935.7
20260505212324 32 259 8.0 20.9 0.00 0.00 0.00 32 935.7
20260505212222 32 274 8.0 20.9 0.00 0.00 0.00 32 935.7
20260505212118 32 240 8.0 24.1 0.00 0.00 0.00 34 935.7
20260505212016 32 221 8.0 24.1 0.00 0.00 0.00 34 935.7
20260505211915 32 242 8.0 24.1 0.00 0.00 0.00 32 935.8
20260505211816 32 246 8.0 24.1 0.00 0.00 0.00 30 935.8
20260505211716 32 212 8.0 24.1 0.00 0.00 0.00 30 935.8
20260505211611 32 220 8.0 24.1 0.00 0.00 0.00 30 935.8
20260505211509 32 235 8.0 24.1 0.00 0.00 0.00 30 935.9
20260505211410 32 222 9.7 24.1 0.00 0.00 0.00 31 935.9
20260505211311 32 215 9.7 24.1 0.00 0.00 0.00 29 935.9
20260505211210 32 284 8.0 24.1 0.00 0.00 0.00 30 935.8
20260505211104 32 199 8.0 17.7 0.00 0.00 0.00 32 935.9
20260505211004 32 252 8.0 17.7 0.00 0.00 0.00 32 935.9
20260505210904 32 199 8.0 17.7 0.00 0.00 0.00 32 935.9
20260505210836 32 255 8.0 17.7 0.00 0.00 0.00 31 935.9
20260505210704 32 264 8.0 16.1 0.00 0.00 0.00 32 936.0
20260505210558 32 232 8.0 16.1 0.00 0.00 0.00 35 936.0
20260505210458 32 242 8.0 16.1 0.00 0.00 0.00 35 936.0
20260505210358 32 254 8.0 16.1 0.00 0.00 0.00 33 936.0
20260505210257 32 211 8.0 14.5 0.00 0.00 0.00 33 936.0
20260505210158 32 214 8.0 14.5 0.00 0.00 0.00 34 936.0
20260505210052 32 244 8.0 16.1 0.00 0.00 0.00 33 936.0
20260505205952 32 246 8.0 16.1 0.00 0.00 0.00 33 936.0
20260505205852 32 213 9.7 20.9 0.00 0.00 0.00 32 936.0
20260505205752 32 215 9.7 20.9 0.00 0.00 0.00 32 936.0
20260505205652 32 191 11.3 20.9 0.00 0.00 0.00 35 936.0
20260505205546 32 202 11.3 20.9 0.00 0.00 0.00 36 936.1
20260505205445 32 203 11.3 22.5 0.00 0.00 0.00 32 936.1
20260505205346 32 145 11.3 22.5 0.00 0.00 0.00 34 936.1
20260505205245 32 229 12.9 22.5 0.00 0.00 0.00 36 936.1
20260505205146 32 205 12.9 22.5 0.00 0.00 0.00 36 936.1
20260505205042 32 260 12.9 22.5 0.00 0.00 0.00 35 936.2
20260505204941 32 234 12.9 24.1 0.00 0.00 0.00 34 936.1
20260505204841 32 253 12.9 24.1 0.00 0.00 0.00 33 936.1
20260505204742 32 236 12.9 24.1 0.00 0.00 0.00 33 936.1
20260505204640 32 213 12.9 24.1 0.00 0.00 0.00 33 936.2
20260505204536 32 236 11.3 24.1 0.00 0.00 0.00 32 936.1
20260505204434 32 222 11.3 24.1 0.00 0.00 0.00 33 936.1
20260505204335 32 202 11.3 24.1 0.00 0.00 0.00 33 936.1
20260505204234 32 214 11.3 24.1 0.00 0.00 0.00 32 936.1
20260505204134 32 200 11.3 24.1 0.00 0.00 0.00 34 936.1
20260505204028 32 223 11.3 24.1 0.00 0.00 0.00 34 936.2
20260505203928 32 221 11.3 24.1 0.00 0.00 0.00 36 936.2
20260505203828 32 260 9.7 24.1 0.00 0.00 0.00 34 936.1
20260505203728 32 240 9.7 24.1 0.00 0.00 0.00 35 936.1
20260505203628 32 253 11.3 24.1 0.00 0.00 0.00 31 936.2
20260505203523 32 227 11.3 24.1 0.00 0.00 0.00 33 936.1
20260505203421 32 227 11.3 24.1 0.00 0.00 0.00 32 936.1
20260505203322 32 217 11.3 24.1 0.00 0.00 0.00 35 936.1
20260505203122 32 200 9.7 24.1 0.00 0.00 0.00 31 936.1
20260505203016 32 198 9.7 22.5 0.00 0.00 0.00 33 936.1
20260505202916 32 182 9.7 22.5 0.00 0.00 0.00 35 936.2
20260505202816 32 238 9.7 22.5 0.00 0.00 0.00 33 936.1
20260505202716 32 212 9.7 22.5 0.00 0.00 0.00 32 936.1
20260505202616 32 238 9.7 22.5 0.00 0.00 0.00 34 936.1
20260505202510 32 219 9.7 22.5 0.00 0.00 0.00 32 936.1
20260505202410 32 227 11.3 22.5 0.00 0.00 0.00 32 936.2
20260505202310 32 213 11.3 22.5 0.00 0.00 0.00 36 936.2
20260505202210 32 217 11.3 22.5 0.00 0.00 0.00 34 936.2
20260505202111 32 222 11.3 22.5 0.00 0.00 0.00 36 936.2
20260505202005 32 197 11.3 22.5 0.00 0.00 0.00 36 936.2
20260505201903 32 208 9.7 22.5 0.00 0.00 0.00 33 936.2
20260505201804 32 211 9.7 19.3 0.00 0.00 0.00 33 936.3
20260505201703 32 178 9.7 19.3 0.00 0.00 0.00 35 936.3
20260505201604 32 185 9.7 25.7 0.00 0.00 0.00 35 936.3
20260505201459 32 198 9.7 25.7 0.00 0.00 0.00 35 936.4
20260505201359 32 196 8.0 25.7 0.00 0.00 0.00 35 936.4
20260505201259 32 202 8.0 25.7 0.00 0.00 0.00 35 936.4
20260505201200 32 177 8.0 25.7 0.00 0.00 0.00 38 936.4
20260505201058 32 242 8.0 25.7 0.00 0.00 0.00 36 936.4
20260505200954 32 251 8.0 25.7 0.00 0.00 0.00 35 936.5
20260505200852 32 229 8.0 25.7 0.00 0.00 0.00 36 936.5
20260505200751 32 245 9.7 25.7 0.00 0.00 0.00 36 936.5
20260505200651 32 217 8.0 25.7 0.00 0.00 0.00 37 936.5
20260505200551 32 240 8.0 20.9 0.00 0.00 0.00 36 936.5
20260505200452 32 198 8.0 20.9 0.00 0.00 0.00 34 936.5
20260505200352 32 235 8.0 20.9 0.00 0.00 0.00 38 936.5
20260505200330 32 221 9.7 20.9 0.00 0.00 0.00 37 936.5
20260505200151 32 252 9.7 20.9 0.00 0.00 0.00 38 936.6
20260505200051 32 238 9.7 20.9 0.00 0.00 0.00 38 936.5
20260505195952 32 224 9.7 20.9 0.00 0.00 0.00 37 936.6
20260505195852 32 183 9.7 19.3 0.00 0.00 0.00 33 936.6
20260505195752 32 194 9.7 27.4 0.00 0.00 0.00 36 936.6
20260505195650 32 214 9.7 27.4 0.00 0.00 0.00 37 936.6
20260505195549 32 201 9.7 27.4 0.00 0.00 0.00 36 936.6
20260505195450 32 200 9.7 27.4 0.00 0.00 0.00 35 936.6
20260505195349 32 228 11.3 27.4 0.00 0.00 0.00 39 936.7
20260505195249 31 204 11.3 27.4 0.00 0.00 0.00 40 936.6
20260505195150 31 203 11.3 27.4 0.00 0.00 0.00 37 936.6
20260505195049 31 171 11.3 27.4 0.00 0.00 0.00 38 936.6
20260505194949 31 190 11.3 27.4 0.00 0.00 0.00 37 936.7
20260505194849 31 216 11.3 27.4 0.00 0.00 0.00 40 936.7
20260505194749 31 186 9.7 20.9 0.00 0.00 0.00 38 936.7
20260505194649 31 187 9.7 20.9 0.00 0.00 0.00 37 936.7
20260505194550 31 246 9.7 19.3 0.00 0.00 0.00 37 936.7
20260505194450 31 232 9.7 19.3 0.00 0.00 0.00 37 936.6
20260505194349 31 226 9.7 19.3 0.00 0.00 0.00 37 936.6
20260505194248 31 186 8.0 19.3 0.00 0.00 0.00 39 936.6
20260505194149 31 219 8.0 19.3 0.00 0.00 0.00 39 936.6
20260505194049 31 182 8.0 19.3 0.00 0.00 0.00 37 936.6
20260505193950 31 192 8.0 19.3 0.00 0.00 0.00 38 936.6
20260505193845 31 195 8.0 19.3 0.00 0.00 0.00 40 936.7
20260505193745 31 223 8.0 19.3 0.00 0.00 0.00 38 936.7
20260505193645 31 228 8.0 19.3 0.00 0.00 0.00 37 936.7
20260505193545 31 254 8.0 19.3 0.00 0.00 0.00 39 936.8
20260505193446 31 243 8.0 19.3 0.00 0.00 0.00 38 936.8
20260505193346 31 242 9.7 19.3 0.00 0.00 0.00 40 936.8
20260505193246 31 239 9.7 19.3 0.00 0.00 0.00 42 936.8
20260505193146 31 245 9.7 20.9 0.00 0.00 0.00 41 936.8
20260505193045 31 255 11.3 20.9 0.00 0.00 0.00 43 936.8
20260505192945 31 222 11.3 20.9 0.00 0.00 0.00 39 936.8
20260505192844 31 192 11.3 24.1 0.00 0.00 0.00 40 936.8
20260505192745 31 233 12.9 24.1 0.00 0.00 0.00 39 936.7
20260505192646 31 186 12.9 24.1 0.00 0.00 0.00 39 936.8
20260505192544 31 202 12.9 24.1 0.00 0.00 0.00 39 936.8
20260505192445 31 248 12.9 24.1 0.00 0.00 0.00 41 936.8
20260505192345 31 213 11.3 24.1 0.00 0.00 0.00 39 936.8
20260505192325 31 186 11.3 24.1 0.00 0.00 0.00 41 936.9
20260505192144 31 217 11.3 24.1 0.00 0.00 0.00 40 936.9
20260505192046 31 185 11.3 24.1 0.00 0.00 0.00 39 936.9
20260505191941 31 203 9.7 24.1 0.00 0.00 0.00 39 936.8
20260505191843 31 217 9.7 20.9 0.00 0.00 0.00 40 936.8
20260505191827 31 234 8.0 20.9 0.00 0.00 0.00 41 936.8
20260505191642 31 189 8.0 20.9 0.00 0.00 0.00 39 936.8
20260505191542 31 193 8.0 17.7 0.00 0.00 0.00 43 936.9
20260505191441 31 248 8.0 17.7 0.00 0.00 0.00 44 936.9
20260505191342 31 244 8.0 17.7 0.00 0.00 0.00 42 936.9
20260505191241 31 182 8.0 19.3 0.00 0.00 0.00 41 937.0
20260505191141 31 244 8.0 19.3 0.00 0.00 0.00 43 937.1
20260505191041 31 225 9.7 19.3 0.00 0.00 0.00 44 937.1
20260505190942 31 232 8.0 19.3 0.00 0.00 0.00 46 937.1
20260505190841 31 213 9.7 19.3 0.00 0.00 0.00 44 937.1
20260505190741 31 217 9.7 27.4 0.00 0.00 0.00 43 937.1
20260505190641 31 225 11.3 27.4 0.00 0.00 0.00 44 937.1
20260505190541 31 194 9.7 27.4 0.00 0.00 0.00 44 937.1
20260505190443 31 207 9.7 27.4 0.00 0.00 0.00 43 937.1
20260505190341 31 213 9.7 27.4 0.00 0.00 0.00 41 937.1
20260505190242 30 187 9.7 27.4 0.00 0.00 0.00 44 937.1
20260505190142 30 190 9.7 27.4 0.00 0.00 0.00 43 937.1
20260505190036 30 229 8.0 27.4 0.00 0.00 0.00 43 937.2
20260505185937 30 219 8.0 27.4 0.00 0.00 0.00 45 937.1
20260505185837 30 257 8.0 25.7 0.00 0.00 0.00 43 937.1
20260505185736 30 188 8.0 19.3 0.00 0.00 0.00 45 937.2
20260505185637 30 194 8.0 16.1 0.00 0.00 0.00 45 937.1
20260505185537 30 252 8.0 16.1 0.00 0.00 0.00 46 937.1
20260505185437 30 237 8.0 16.1 0.00 0.00 0.00 44 937.1
20260505185337 30 213 8.0 16.1 0.00 0.00 0.00 47 937.1
20260505185237 30 229 8.0 16.1 0.00 0.00 0.00 47 937.1
20260505185137 30 236 8.0 16.1 0.00 0.00 0.00 45 937.1
20260505185036 30 212 9.7 16.1 0.00 0.00 0.00 45 937.1
20260505184937 30 208 8.0 16.1 0.00 0.00 0.00 49 937.2
20260505184838 30 200 8.0 16.1 0.00 0.00 0.00 49 937.2
20260505184737 30 236 8.0 16.1 0.00 0.00 0.00 48 937.2
20260505184636 30 201 8.0 16.1 0.00 0.00 0.00 47 937.2
20260505184538 30 250 9.7 16.1 0.00 0.00 0.00 46 937.2
20260505184438 30 214 9.7 16.1 0.00 0.00 0.00 46 937.2
20260505184337 30 206 8.0 16.1 0.00 0.00 0.00 48 937.2
20260505184238 30 246 8.0 16.1 0.00 0.00 0.00 47 937.2
20260505184133 30 246 8.0 16.1 0.00 0.00 0.00 45 937.2
20260505184034 30 225 9.7 17.7 0.00 0.00 0.00 46 937.2
20260505183930 30 231 9.7 20.9 0.00 0.00 0.00 47 937.2
20260505183832 30 214 9.7 20.9 0.00 0.00 0.00 46 937.2
20260505183732 30 211 9.7 22.5 0.00 0.00 0.00 49 937.3
20260505183631 30 178 9.7 22.5 0.00 0.00 0.00 49 937.3
20260505183532 30 190 9.7 22.5 0.00 0.00 0.00 51 937.3
20260505183431 30 228 9.7 22.5 0.00 0.00 0.00 48 937.4
20260505183330 30 193 11.3 22.5 0.00 0.00 0.00 49 937.4
20260505183232 30 200 11.3 22.5 0.00 0.00 0.00 45 937.4
20260505183132 30 254 11.3 22.5 0.00 0.00 0.00 47 937.4
20260505183031 30 255 9.7 22.5 0.00 0.00 0.00 46 937.4
20260505182926 30 216 9.7 22.5 0.00 0.00 0.00 49 937.4
20260505182834 29 221 9.7 22.5 0.00 0.00 0.00 48 937.5
20260505182815 30 248 9.7 22.5 0.00 0.00 0.00 46 937.4
20260505182626 30 245 9.7 22.5 0.00 0.00 0.00 48 937.5
20260505182525 30 209 9.7 24.1 0.00 0.00 0.00 49 937.5
20260505182420 30 249 9.7 24.1 0.00 0.00 0.00 48 937.5
20260505182325 30 250 11.3 24.1 0.00 0.00 0.00 47 937.6
20260505182309 30 248 11.3 24.1 0.00 0.00 0.00 51 937.6
20260505182119 30 237 12.9 24.1 0.00 0.00 0.00 49 937.6
20260505182019 30 232 11.3 24.1 0.00 0.00 0.00 48 937.7
20260505181913 30 207 12.9 24.1 0.00 0.00 0.00 48 937.7
20260505181814 30 261 12.9 24.1 0.00 0.00 0.00 50 937.7
20260505181714 30 228 12.9 24.1 0.00 0.00 0.00 50 937.7
20260505181613 29 213 12.9 24.1 0.00 0.00 0.00 47 937.7
20260505181514 30 244 11.3 22.5 0.00 0.00 0.00 50 937.7
20260505181409 29 234 11.3 22.5 0.00 0.00 0.00 51 937.8
20260505181309 29 261 11.3 22.5 0.00 0.00 0.00 49 937.8
20260505181209 29 246 9.7 20.9 0.00 0.00 0.00 50 937.7
20260505181109 29 232 9.7 19.3 0.00 0.00 0.00 53 937.7
20260505181007 29 232 9.7 19.3 0.00 0.00 0.00 48 937.7
20260505180904 29 246 9.7 19.3 0.00 0.00 0.00 50 937.7
20260505180801 29 255 9.7 19.3 0.00 0.00 0.00 51 937.7
20260505180702 28 246 9.7 19.3 0.00 0.00 0.00 51 937.8
20260505180602 28 196 9.7 17.7 0.00 0.00 0.00 51 937.7
20260505180501 28 238 9.7 19.3 0.00 0.00 0.00 51 937.8
20260505180356 28 200 9.7 19.3 0.00 0.00 0.00 50 937.7
20260505180256 28 254 9.7 19.3 0.00 0.00 0.00 51 937.8
20260505180156 28 257 9.7 19.3 0.00 0.00 0.00 51 937.8
20260505180056 28 234 8.0 19.3 0.00 0.00 0.00 50 937.9
20260505175955 28 222 8.0 19.3 0.00 0.00 0.00 52 937.9
20260505175850 28 279 9.7 19.3 0.00 0.00 0.00 52 937.9
20260505175749 28 221 9.7 19.3 0.00 0.00 0.00 50 937.9
20260505175650 28 204 9.7 19.3 0.00 0.00 0.00 51 937.9
20260505175549 28 244 9.7 24.1 0.00 0.00 0.00 53 937.9
20260505175449 28 210 9.7 24.1 0.00 0.00 0.00 52 937.9
20260505175344 28 233 9.7 24.1 0.00 0.00 0.00 53 937.9
20260505175244 28 234 9.7 24.1 0.00 0.00 0.00 55 937.9
20260505175144 28 208 9.7 24.1 0.00 0.00 0.00 54 937.9
20260505175043 28 265 11.3 24.1 0.00 0.00 0.00 57 937.9
20260505174943 28 267 9.7 24.1 0.00 0.00 0.00 53 937.9
20260505174838 28 241 9.7 24.1 0.00 0.00 0.00 55 937.9
20260505174739 28 279 11.3 24.1 0.00 0.00 0.00 53 938.0
20260505174639 28 250 9.7 24.1 0.00 0.00 0.00 55 937.9
20260505174540 28 240 9.7 20.9 0.00 0.00 0.00 54 937.9
20260505174437 28 226 9.7 20.9 0.00 0.00 0.00 55 937.9
20260505174332 28 252 9.7 20.9 0.00 0.00 0.00 53 937.9
20260505174231 28 257 9.7 20.9 0.00 0.00 0.00 54 937.9
20260505174131 28 227 9.7 20.9 0.00 0.00 0.00 55 937.9
20260505174031 28 220 9.7 19.3 0.00 0.00 0.00 54 937.9
20260505173932 28 244 9.7 19.3 0.00 0.00 0.00 56 937.9
20260505173827 28 265 9.7 19.3 0.00 0.00 0.00 56 937.9
20260505173728 28 245 8.0 19.3 0.00 0.00 0.00 55 937.9
20260505173626 28 235 8.0 19.3 0.00 0.00 0.00 55 937.9
20260505173528 28 182 8.0 19.3 0.00 0.00 0.00 55 937.9
20260505173425 28 223 8.0 19.3 0.00 0.00 0.00 58 937.9
20260505173322 28 220 8.0 19.3 0.00 0.00 0.00 56 937.8
20260505173219 28 207 8.0 17.7 0.00 0.00 0.00 55 937.8
20260505173120 27 248 8.0 17.7 0.00 0.00 0.00 56 937.8
20260505173018 27 222 8.0 14.5 0.00 0.00 0.00 60 937.8
20260505172919 27 176 8.0 14.5 0.00 0.00 0.00 58 937.9
20260505172814 27 229 9.7 29.0 0.00 0.00 0.00 56 937.9
20260505172714 27 184 9.7 29.0 0.00 0.00 0.00 58 937.8
20260505172614 27 232 11.3 29.0 0.00 0.00 0.00 58 937.8
20260505172513 27 239 11.3 29.0 0.00 0.00 0.00 56 937.8
20260505172413 27 211 11.3 29.0 0.00 0.00 0.00 56 937.8
20260505172307 27 193 9.7 29.0 0.00 0.00 0.00 57 937.8
20260505172207 27 187 9.7 29.0 0.00 0.00 0.00 56 937.8
20260505172108 27 178 9.7 29.0 0.00 0.00 0.00 57 937.8
20260505172007 27 224 11.3 29.0 0.00 0.00 0.00 56 937.8
20260505171907 27 223 9.7 29.0 0.00 0.00 0.00 56 937.8
20260505171800 27 208 9.7 19.3 0.00 0.00 0.00 56 937.8
20260505171701 27 208 8.0 19.3 0.00 0.00 0.00 59 937.8
20260505171602 27 250 8.0 19.3 0.00 0.00 0.00 61 937.8
20260505171501 27 239 8.0 19.3 0.00 0.00 0.00 58 937.9
20260505171401 27 210 8.0 19.3 0.00 0.00 0.00 56 937.9
20260505171258 27 254 8.0 19.3 0.00 0.00 0.00 57 937.9
20260505171157 27 219 8.0 19.3 0.00 0.00 0.00 58 937.9
20260505171056 27 215 9.7 19.3 0.00 0.00 0.00 57 937.8
20260505170958 27 184 8.0 19.3 0.00 0.00 0.00 56 937.8
20260505170856 27 192 8.0 19.3 0.00 0.00 0.00 56 937.9
20260505170753 27 233 9.7 19.3 0.00 0.00 0.00 57 937.8
20260505170653 27 192 9.7 19.3 0.00 0.00 0.00 58 937.8
20260505170550 27 244 9.7 19.3 0.00 0.00 0.00 59 937.8
20260505170452 27 241 9.7 19.3 0.00 0.00 0.00 57 937.9
20260505170349 27 236 9.7 19.3 0.00 0.00 0.00 58 937.8
20260505170245 27 234 9.7 19.3 0.00 0.00 0.00 59 937.9
20260505170146 27 223 9.7 19.3 0.00 0.00 0.00 59 937.8
20260505170044 27 235 8.0 19.3 0.00 0.00 0.00 59 937.8
20260505165946 27 240 9.7 20.9 0.00 0.00 0.00 57 937.8
20260505165843 27 215 9.7 20.9 0.00 0.00 0.00 60 937.8
20260505165739 27 215 9.7 20.9 0.00 0.00 0.00 60 937.9
20260505165637 27 225 9.7 20.9 0.00 0.00 0.00 58 937.9
20260505165537 27 227 9.7 20.9 0.00 0.00 0.00 60 937.9
20260505165436 27 236 11.3 20.9 0.00 0.00 0.00 59 937.9
20260505165337 27 231 11.3 20.9 0.00 0.00 0.00 61 937.9
20260505165232 27 234 11.3 20.9 0.00 0.00 0.00 59 937.9
20260505165137 27 235 11.3 20.9 0.00 0.00 0.00 61 937.9
20260505165120 27 230 11.3 20.9 0.00 0.00 0.00 59 937.9
20260505164930 27 244 9.7 17.7 0.00 0.00 0.00 59 937.9
20260505164831 27 215 9.7 17.7 0.00 0.00 0.00 59 937.9
20260505164726 27 213 9.7 17.7 0.00 0.00 0.00 61 937.9
20260505164625 27 217 9.7 20.9 0.00 0.00 0.00 61 937.9
20260505164525 27 229 9.7 24.1 0.00 0.00 0.00 61 938.0
20260505164424 27 250 9.7 24.1 0.00 0.00 0.00 63 938.0
20260505164325 27 223 9.7 24.1 0.00 0.00 0.00 61 938.0
20260505164218 27 243 9.7 24.1 0.00 0.00 0.00 62 938.0
20260505164118 26 220 9.7 24.1 0.00 0.00 0.00 62 938.0
20260505164020 26 252 11.3 24.1 0.00 0.00 0.00 62 938.0
20260505163919 26 219 9.7 24.1 0.00 0.00 0.00 61 937.9
20260505163819 26 243 9.7 24.1 0.00 0.00 0.00 62 938.0
20260505163715 26 161 9.7 24.1 0.00 0.00 0.00 62 938.0
20260505163616 26 197 9.7 24.1 0.00 0.00 0.00 63 938.0
20260505163514 26 209 9.7 20.9 0.00 0.00 0.00 64 938.0
20260505163415 26 193 9.7 19.3 0.00 0.00 0.00 63 938.0
20260505163313 26 198 9.7 19.3 0.00 0.00 0.00 64 938.0
20260505163208 26 200 8.0 19.3 0.00 0.00 0.00 66 938.1
20260505163107 26 238 8.0 19.3 0.00 0.00 0.00 65 938.0
20260505163008 26 216 8.0 19.3 0.00 0.00 0.00 65 938.1
20260505162907 26 224 8.0 19.3 0.00 0.00 0.00 68 938.0
20260505162807 26 222 6.4 19.3 0.00 0.00 0.00 69 938.0
20260505162703 26 254 6.4 16.1 0.00 0.00 0.00 68 938.0
20260505162603 26 227 6.4 16.1 0.00 0.00 0.00 69 938.0
20260505162502 26 242 6.4 16.1 0.00 0.00 0.00 69 938.1
20260505162404 25 194 6.4 16.1 0.00 0.00 0.00 70 938.1
20260505162301 25 257 6.4 14.5 0.00 0.00 0.00 73 938.1
20260505162158 25 218 6.4 14.5 0.00 0.00 0.00 74 938.1
20260505162056 25 246 6.4 14.5 0.00 0.00 0.00 72 938.1
20260505161955 25 246 6.4 16.1 0.00 0.00 0.00 72 938.1
20260505161856 25 207 8.0 16.1 0.00 0.00 0.00 72 938.1
20260505161755 25 201 8.0 16.1 0.00 0.00 0.00 72 938.0
20260505161649 25 186 8.0 17.7 0.00 0.00 0.00 71 938.1
20260505161549 25 222 8.0 17.7 0.00 0.00 0.00 72 938.1
20260505161449 25 229 8.0 17.7 0.00 0.00 0.00 71 938.0
20260505161348 25 232 8.0 17.7 0.00 0.00 0.00 72 938.1
20260505161309 25 208 9.7 25.7 0.00 0.00 0.00 71 938.0
20260505161144 25 173 9.7 25.7 0.00 0.00 0.00 72 938.0
20260505161050 25 250 9.7 25.7 0.00 0.00 0.00 71 938.0
20260505161033 25 257 9.7 25.7 0.00 0.00 0.00 72 938.1
20260505160844 25 212 9.7 25.7 0.00 0.00 0.00 71 938.1
20260505160743 25 225 9.7 25.7 0.00 0.00 0.00 70 938.0
20260505160636 25 173 8.0 25.7 0.00 0.00 0.00 72 938.0
20260505160537 25 232 8.0 25.7 0.00 0.00 0.00 70 938.1
20260505160437 25 248 8.0 25.7 0.00 0.00 0.00 73 938.1
20260505160336 25 205 9.7 25.7 0.00 0.00 0.00 72 938.1
20260505160237 25 243 8.0 20.9 0.00 0.00 0.00 72 938.1
20260505160132 25 251 8.0 20.9 0.00 0.00 0.00 72 938.1
20260505153301 24 195 11.3 22.5 0.00 0.00 0.00 74 937.7
20260505153201 24 225 11.3 22.5 0.00 0.00 0.00 73 937.6
20260505153056 24 200 11.3 27.4 0.00 0.00 0.00 75 937.6
20260505152954 24 203 11.3 27.4 0.00 0.00 0.00 74 937.5
20260505152856 24 199 11.3 27.4 0.00 0.00 0.00 74 937.5
20260505152755 24 203 11.3 27.4 0.00 0.00 0.00 75 937.5
20260505152655 24 186 11.3 27.4 0.00 0.00 0.00 75 937.5
20260505152550 23 192 11.3 27.4 0.00 0.00 0.00 75 937.6
20260505152451 23 250 11.3 27.4 0.00 0.00 0.00 76 937.6
20260505152350 23 269 11.3 27.4 0.00 0.00 0.00 74 937.6
20260505152251 23 226 11.3 27.4 0.00 0.00 0.00 74 937.7
20260505152149 23 203 12.9 27.4 0.00 0.00 0.00 75 937.7
20260505152046 23 229 12.9 24.1 0.00 0.00 0.00 76 937.7
20260505151944 23 237 12.9 20.9 0.00 0.00 0.00 76 937.6
20260505151843 23 240 12.9 20.9 0.00 0.00 0.00 76 937.7
20260505151743 23 191 12.9 20.9 0.00 0.00 0.00 75 937.6
20260505151644 23 263 12.9 20.9 0.00 0.00 0.00 76 937.6
20260505151538 23 216 12.9 27.4 0.00 0.00 0.00 75 937.6
20260505151437 23 223 14.5 27.4 0.00 0.00 0.00 75 937.5
20260505151338 23 243 14.5 27.4 0.00 0.00 0.00 75 937.5
20260505151238 23 188 14.5 30.6 0.00 0.00 0.00 76 937.5
20260505151137 23 229 14.5 30.6 0.00 0.00 0.00 76 937.5
20260505151031 23 273 14.5 30.6 0.00 0.00 0.00 77 937.4
20260505150931 23 265 16.1 30.6 0.00 0.00 0.00 76 937.4
20260505150832 23 218 16.1 30.6 0.00 0.00 0.00 77 937.3
20260505150732 23 213 16.1 30.6 0.00 0.00 0.00 77 937.3
20260505150631 23 252 16.1 30.6 0.00 0.00 0.00 76 937.3
20260505150525 23 207 16.1 30.6 0.00 0.00 0.00 77 937.4
20260505150426 23 206 16.1 30.6 0.00 0.00 0.00 77 937.3
20260505150326 23 211 14.5 30.6 0.00 0.00 0.00 77 937.3
20260505150225 23 204 14.5 25.7 0.00 0.00 0.00 77 937.3
20260505150125 23 206 14.5 25.7 0.00 0.00 0.00 77 937.2
20260505140618 22 194 12.9 25.7 0.00 0.00 0.00 82 937.2
20260505140520 22 174 12.9 24.1 0.00 0.00 0.00 82 937.2
20260505140413 22 222 12.9 30.6 0.00 0.00 0.00 82 937.2
20260505140312 22 233 12.9 30.6 0.00 0.00 0.00 83 937.2
20260505140214 21 227 12.9 30.6 0.00 0.00 0.00 83 937.2
20260505140113 21 200 12.9 30.6 0.00 0.00 0.00 83 937.2
20260505130302 19 0 14.5 25.7 0.00 0.00 0.00 87 936.8
20260505130202 19 180 14.5 27.4 0.00 0.00 0.00 87 936.8
20260505124948 19 188 12.9 24.1 0.00 0.00 0.00 88 936.5
20260505124849 18 197 12.9 24.1 0.00 0.00 0.00 88 936.5
20260505124743 18 181 12.9 24.1 0.00 0.00 0.00 88 936.5
20260505124650 18 221 12.9 24.1 0.00 0.00 0.00 88 936.6
20260505124633 18 229 12.9 24.1 0.00 0.00 0.00 88 936.6
20260505124442 18 201 12.9 20.9 0.00 0.00 0.00 88 936.6
20260505124343 18 190 12.9 20.9 0.00 0.00 0.00 88 936.6
20260505124236 18 217 12.9 20.9 0.00 0.00 0.00 88 936.6
20260505124136 18 192 12.9 20.9 0.00 0.00 0.00 89 936.5
20260505124037 18 184 12.9 19.3 0.00 0.00 0.00 89 936.5
20260505123937 18 204 11.3 19.3 0.00 0.00 0.00 89 936.5
20260505123837 18 215 11.3 19.3 0.00 0.00 0.00 89 936.6
20260505123732 18 207 11.3 19.3 0.00 0.00 0.00 89 936.6
20260505123632 18 198 11.3 19.3 0.00 0.00 0.00 89 936.6
20260505123532 18 249 11.3 19.3 0.00 0.00 0.00 89 936.5
20260505123434 18 194 11.3 19.3 0.00 0.00 0.00 89 936.5
20260505123331 18 211 11.3 19.3 0.00 0.00 0.00 89 936.6
20260505123227 18 192 11.3 17.7 0.00 0.00 0.00 89 936.6
20260505123125 18 193 11.3 17.7 0.00 0.00 0.00 89 936.6
20260505123026 18 243 11.3 17.7 0.00 0.00 0.00 89 936.6
20260505122925 18 212 11.3 17.7 0.00 0.00 0.00 89 936.6
20260505122825 18 244 11.3 17.7 0.00 0.00 0.00 89 936.5
20260505122723 18 196 9.7 17.7 0.00 0.00 0.00 89 936.5
20260505122637 18 0 9.7 17.7 0.00 0.00 0.00 89 936.5
20260505122619 18 263 9.7 17.7 0.00 0.00 0.00 89 936.5
20260505122422 18 187 9.7 17.7 0.00 0.00 0.00 89 936.5
20260505122322 18 191 9.7 17.7 0.00 0.00 0.00 89 936.5
20260505122222 18 215 9.7 17.7 0.00 0.00 0.00 89 936.5
20260505122123 18 210 9.7 17.7 0.00 0.00 0.00 89 936.5
20260505122023 18 209 9.7 17.7 0.00 0.00 0.00 89 936.5
20260505121922 18 180 9.7 17.7 0.00 0.00 0.00 89 936.4
20260505121822 18 202 9.7 17.7 0.00 0.00 0.00 89 936.4
20260505121722 18 217 9.7 17.7 0.00 0.00 0.00 89 936.5
20260505121623 18 0 9.7 17.7 0.00 0.00 0.00 89 936.4
20260505121522 18 170 9.7 17.7 0.00 0.00 0.00 90 936.4
20260505121420 18 258 9.7 17.7 0.00 0.00 0.00 90 936.4
20260505121320 18 202 9.7 17.7 0.00 0.00 0.00 90 936.4
20260505121220 18 206 9.7 17.7 0.00 0.00 0.00 90 936.4
20260505121121 18 200 9.7 17.7 0.00 0.00 0.00 90 936.3
20260505121017 18 230 9.7 17.7 0.00 0.00 0.00 90 936.3
20260505120916 18 232 9.7 17.7 0.00 0.00 0.00 90 936.3
20260505120817 18 226 9.7 17.7 0.00 0.00 0.00 90 936.3
20260505120716 18 188 9.7 19.3 0.00 0.00 0.00 90 936.2
20260505120617 18 193 9.7 19.3 0.00 0.00 0.00 90 936.3
20260505120414 18 206 9.7 19.3 0.00 0.00 0.00 89 936.3
20260505120314 18 211 9.7 19.3 0.00 0.00 0.00 89 936.3
20260505120214 18 189 9.7 19.3 0.00 0.00 0.00 89 936.2
20260505120114 18 198 9.7 19.3 0.00 0.00 0.00 89 936.2
20260505115915 18 193 9.7 20.9 0.00 0.00 0.00 89 936.3
20260505115815 18 196 9.7 20.9 0.00 0.00 0.00 89 936.3
20260505115714 18 193 9.7 20.9 0.00 0.00 0.00 89 936.3
20260505115614 18 202 11.3 20.9 0.00 0.00 0.00 89 936.3
20260505115517 18 174 11.3 20.9 0.00 0.00 0.00 89 936.2
20260505115415 18 209 11.3 20.9 0.00 0.00 0.00 89 936.2
20260505115315 18 222 11.3 20.9 0.00 0.00 0.00 89 936.2
20260505115212 18 186 11.3 20.9 0.00 0.00 0.00 89 936.2
20260505115112 18 183 11.3 20.9 0.00 0.00 0.00 89 936.2
20260505114912 18 196 11.3 19.3 0.00 0.00 0.00 89 936.2
20260505114813 18 191 11.3 19.3 0.00 0.00 0.00 89 936.2
20260505114712 18 202 11.3 20.9 0.00 0.00 0.00 89 936.3
20260505114612 18 210 11.3 20.9 0.00 0.00 0.00 88 936.3
20260505114412 18 219 11.3 20.9 0.00 0.00 0.00 89 936.2
20260505114312 18 194 11.3 20.9 0.00 0.00 0.00 88 936.1
20260505114212 18 230 11.3 20.9 0.00 0.00 0.00 88 936.0
20260505114113 18 214 11.3 20.9 0.00 0.00 0.00 88 936.0
20260505113908 18 201 12.9 20.9 0.00 0.00 0.00 88 936.1
20260505113808 18 207 11.3 22.5 0.00 0.00 0.00 88 936.0
20260505113709 18 200 11.3 22.5 0.00 0.00 0.00 88 936.0
20260505113608 18 209 11.3 22.5 0.00 0.00 0.00 88 936.0
20260505113408 18 217 12.9 22.5 0.00 0.00 0.00 88 936.0
20260505113308 18 183 12.9 22.5 0.00 0.00 0.00 88 936.0
20260505113208 18 202 12.9 22.5 0.00 0.00 0.00 88 936.0
20260505113130 18 206 12.9 22.5 0.00 0.00 0.00 88 936.0
20260505113114 18 175 12.9 22.5 0.00 0.00 0.00 88 936.0
20260505112909 18 191 12.9 22.5 0.00 0.00 0.00 88 935.9
20260505112808 18 199 12.9 22.5 0.00 0.00 0.00 88 936.0
20260505112709 18 209 12.9 22.5 0.00 0.00 0.00 88 936.0
20260505112608 18 194 12.9 22.5 0.00 0.00 0.00 88 936.0
20260505112408 18 200 12.9 22.5 0.00 0.00 0.00 88 936.0
20260505112308 18 230 12.9 22.5 0.00 0.00 0.00 88 936.1
20260505112208 18 189 12.9 22.5 0.00 0.00 0.00 88 936.0
20260505112109 18 189 12.9 22.5 0.00 0.00 0.00 88 936.1
20260505112004 18 209 12.9 22.5 0.00 0.00 0.00 88 936.1
20260505111905 18 226 12.9 22.5 0.00 0.00 0.00 88 936.1
20260505111805 18 190 12.9 22.5 0.00 0.00 0.00 88 936.0
20260505111704 18 187 12.9 20.9 0.00 0.00 0.00 88 936.0
20260505111604 18 192 12.9 20.9 0.00 0.00 0.00 88 936.0
20260505111504 18 198 11.3 20.9 0.00 0.00 0.00 88 936.0
20260505111404 18 188 12.9 19.3 0.00 0.00 0.00 88 936.0
20260505111305 18 167 12.9 19.3 0.00 0.00 0.00 88 936.0
20260505111205 18 0 12.9 19.3 0.00 0.00 0.00 88 936.0
20260505111104 18 188 12.9 19.3 0.00 0.00 0.00 88 935.9
20260505111005 18 205 12.9 19.3 0.00 0.00 0.00 88 936.0
20260505110904 18 182 12.9 19.3 0.00 0.00 0.00 88 936.0
20260505110804 18 180 11.3 19.3 0.00 0.00 0.00 88 936.1
20260505110704 18 198 11.3 19.3 0.00 0.00 0.00 88 936.1
20260505110605 18 215 11.3 19.3 0.00 0.00 0.00 88 936.1
20260505110503 18 207 11.3 19.3 0.00 0.00 0.00 88 936.1
20260505110405 18 196 11.3 19.3 0.00 0.00 0.00 88 936.1
20260505110348 18 197 11.3 19.3 0.00 0.00 0.00 88 936.0
20260505110205 18 191 11.3 19.3 0.00 0.00 0.00 88 936.0
20260505110119 18 208 11.3 19.3 0.00 0.00 0.00 88 936.0